Luxor, Egypt

8:07 PM EET on April 23, 2017 (GMT +0200)
Luxor International

Weather History for HELX - May, 2013

Change the Weather History Date:

Wednesday, May 1, 2013

  Actual Average Record
Temperature  
Mean Temperature 85 °F -  
Max Temperature 103 °F 99 °F 106 °F (2015)
Min Temperature 67 °F 70 °F 55 °F (2015)
Cooling Degree Days 20    
Growing Degree Days 35 (Base 50)    
Moisture  
Dew Point 42 °F    
Average Humidity 19    
Maximum Humidity 28    
Minimum Humidity 7    
Precipitation  
Precipitation 0.00 in 0.00 in - ()
Sea Level Pressure  
Sea Level Pressure 29.73 in    
Wind  
Wind Speed 2 mph ()    
Max Wind Speed 9 mph    
Max Gust Speed -    
Visibility 4.9 miles    
Events      
Averages and records for this station are not official NWS values.
T = Trace of Precipitation, MM = Missing Value Source: Averaged Metar Reports

Daily Weather History Graph

Daily Weather History Graph

Search for Another Location

Airport or City:

Trip Planner

Search our weather history database for the weather conditions in past years. The results will help you decide how hot, cold, wet, or windy it might be!

Date:

Astronomy

May. 01, 2013 Rise Set
Actual Time 5:12 AM EET 6:20 PM EET
Civil Twilight 4:48 AM EET 6:44 PM EET
Nautical Twilight 4:19 AM EET 7:13 PM EET
Astronomical Twilight 3:50 AM EET 7:42 PM EET
Moon 11:59 PM EET (5/1) 10:29 AM EET (5/1)
Length of Visible Light 13h 56m
Length of Day
13h 07m
Waning Gibbous, 62% of the Moon is Illuminated
May 1
Waning Gibbous
May 2
Last Quarter
May 10
New
May 18
First Quarter
May 25
Full

Hourly Weather History & Observations

Time (EET) Temp. Dew Point Humidity Pressure Visibility Wind Dir Wind Speed Gust Speed Precip Events Conditions
12:00 AM 80.6 °F 32.0 °F 17% 29.77 in - Calm Calm - N/A   Clear
1:00 AM 75.2 °F 32.0 °F 21% 29.74 in - Calm Calm - N/A   Clear
2:00 AM 72 °F 36 °F 17% 29.74 in 6 mi Calm Calm - -  
2:00 AM 73.4 °F 37.4 °F 27% 29.74 in - Calm Calm - N/A   Clear
3:00 AM 75.2 °F 33.8 °F 22% 29.74 in - North 2.3 mph - N/A   Clear
4:00 AM 71.6 °F 30.2 °F 22% 29.74 in - SSE 4.6 mph - N/A   Clear
5:00 AM 71.6 °F 28.4 °F 20% 29.77 in - Calm Calm - N/A   Clear
6:00 AM 68.0 °F 33.8 °F 28% 29.77 in - Calm Calm - N/A   Clear
7:00 AM 80.6 °F 41.0 °F 24% 29.80 in - East 2.3 mph - N/A   Clear
8:00 AM 83 °F 42 °F 14% 29.79 in 6 mi ENE 3.5 mph - -  
8:00 AM 84.2 °F 42.8 °F 23% 29.80 in - ENE 3.5 mph - N/A   Clear
9:00 AM 89.6 °F 46.4 °F 22% 29.80 in 3.7 mi Calm Calm - N/A   Unknown
10:00 AM 93.2 °F 50.0 °F 23% 29.77 in 3.7 mi Calm Calm - N/A   Unknown
11:00 AM 96.8 °F 51.8 °F 22% 29.77 in 3.7 mi North 2.3 mph - N/A   Unknown
12:00 PM 98.6 °F 50.0 °F 19% 29.74 in 3.7 mi North 2.3 mph - N/A   Unknown
1:00 PM 100.4 °F 50.0 °F 18% 29.74 in 5.0 mi NNE 3.5 mph - N/A   Unknown
2:00 PM 102 °F 44 °F 7% 29.70 in 6 mi NW 3.5 mph - -  
2:00 PM 102.2 °F 44.6 °F 14% 29.71 in - NW 3.5 mph - N/A   Clear
3:00 PM 100.4 °F 46.4 °F 16% 29.68 in - NNE 3.5 mph - N/A   Clear
4:00 PM 102.2 °F 44.6 °F 14% 29.68 in - WNW 3.5 mph - N/A   Clear
5:00 PM 100.4 °F 44.6 °F 15% 29.65 in - West 3.5 mph - N/A   Clear
6:00 PM 96.8 °F 48.2 °F 19% 29.65 in - WSW 3.5 mph - N/A   Clear
7:00 PM 91.4 °F 48.2 °F 23% 29.68 in - West 3.5 mph - N/A   Clear
8:00 PM 89 °F 47 °F 15% 29.68 in 6 mi West 2.3 mph - -  
8:00 PM 89.6 °F 48.2 °F 24% 29.68 in - West 2.3 mph - N/A   Clear
9:00 PM 91.4 °F 39.2 °F 16% 29.71 in - East 9.2 mph - N/A   Clear
10:00 PM 87.8 °F 39.2 °F 18% 29.71 in - Calm Calm - N/A   Clear
11:00 PM 80.6 °F 42.8 °F 26% 29.71 in - West 3.5 mph - N/A   Clear